This is the latest recevied weather packets stored in our database for station/object KC5TIL. If no packets are shown the sender has not sent any weather packets the latest 10 day(s).
| Time | Temp. | Humidity | Pressure | Rain* | Wind** | Luminosity | Snow |
|---|---|---|---|---|---|---|---|
| 1777845856 | 27.78° C | 36% | 1016.7 hPa | 0 mm | - | 434 W/m² | - |
| 1777845554 | 27.78° C | 35% | 1016.7 hPa | 0 mm | - | 476 W/m² | - |
| 1777845250 | 28.33° C | 34% | 1016.8 hPa | 0 mm | - | 450 W/m² | - |
| 1777844948 | 28.33° C | 32% | 1016.9 hPa | 0 mm | - | 453 W/m² | - |
| 1777844645 | 28.33° C | 33% | 1017.1 hPa | 0 mm | - | 525 W/m² | - |
| 1777844343 | 27.78° C | 36% | 1017 hPa | 0 mm | - | 491 W/m² | - |
| 1777844040 | 28.33° C | 34% | 1017.1 hPa | 0 mm | - | 524 W/m² | - |
| 1777843736 | 28.33° C | 35% | 1017.2 hPa | 0 mm | - | 533 W/m² | - |
| 1777843435 | 28.89° C | 32% | 1017.3 hPa | 0 mm | - | 560 W/m² | - |
| 1777843131 | 28.33° C | 31% | 1017.4 hPa | 0 mm | - | 585 W/m² | - |
| 1777842828 | 28.33° C | 33% | 1017.5 hPa | 0 mm | - | 598 W/m² | - |
| 1777842523 | 28.33° C | 33% | 1017.5 hPa | 0 mm | - | 603 W/m² | - |
| 1777842221 | 28.33° C | 33% | 1017.8 hPa | 0 mm | - | 634 W/m² | - |
| 1777841916 | 27.78° C | 34% | 1017.9 hPa | 0 mm | - | 642 W/m² | - |
| 1777841612 | 28.33° C | 35% | 1018.1 hPa | 0 mm | - | 615 W/m² | - |
| 1777841309 | 28.89° C | 35% | 1018.1 hPa | 0 mm | - | 623 W/m² | - |
| 1777841007 | 28.33° C | 34% | 1018.3 hPa | 0 mm | - | 618 W/m² | - |
| 1777840704 | 27.78° C | 37% | 1018.3 hPa | 0 mm | - | 665 W/m² | - |
| 1777840401 | 28.33° C | 33% | 1018.6 hPa | 0 mm | - | 665 W/m² | - |
| 1777840098 | 28.89° C | 32% | 1018.6 hPa | 0 mm | - | 667 W/m² | - |
| 1777839796 | 28.33° C | 33% | 1018.6 hPa | 0 mm | - | 664 W/m² | - |
| 1777839494 | 28.33° C | 34% | 1018.6 hPa | 0 mm | - | 662 W/m² | - |
| 1777839190 | 28.33° C | 32% | 1018.7 hPa | 0 mm | - | 668 W/m² | - |
| 1777838888 | 28.33° C | 33% | 1018.9 hPa | 0 mm | - | 685 W/m² | - |
| 1777838583 | 28.33° C | 31% | 1018.9 hPa | 0 mm | - | 681 W/m² | - |
* Rain latest hour (hover to see other rain measurements)
** Current wind speed in m/s (hover to see current wind gust speed)